User: anonymous   Login
Location: Unspecified
(0.0000°N, 0.0000°E)
Time: 21:28:29
(UTC+00:00)
Language:

STARLINK-33691 - Orbit

View from above orbital plane
View from above orbital plane
View from above satellite
View from above satellite

Ground track
Ground track

The orbit is defined by the following mean orbital elements,

1 63462U          26145.47416088 +.00000000 +00000-0 +43132-3 0 00006
2 63462  43.0003 185.8152 0001465 275.3156  84.7529 15.27589084    02
Epoch (UTC): 25 May 2026 11:22:47
Eccentricity: 0.0001465
inclination: 43.0003°
perigee height: 482 km
apogee height: 484 km
right ascension of ascending node: 185.8152°
argument of perigee: 275.3156°
revolutions per day: 15.27589084
mean anomaly at epoch: 84.7529°

The dashed part of the orbit path shows where the satellite is in the earth's shadow,  

DLR